Simultaneous Nadir Overpasses (SNOs) Predictions

Prediction of SNOs between AQUA and NPP Satellite Orbit:

Table of predicted SNOs for the next 14.0 days since TLE Epoch: 8/13/2022
Index Date (AQUA) Time (AQUA) Lat,Lon (AQUA) SZA (AQUA ) Date (NPP) Time (NPP) Lat,Lon (NPP) SZA (NPP ) Distance(km) Time Diff (sec)
1 08/15/2022 04:53:52 78.20, -4.84 80.72 08/15/2022 04:52:39 78.21, -4.75 80.76 2.16 73
2 08/15/2022 05:43:10 -78.59, 164.75 99.78 08/15/2022 05:43:15 -78.58, 164.72 99.78 0.80 5
3 08/17/2022 21:09:35 78.52, 112.81 81.11 08/17/2022 21:09:28 78.52, 112.79 81.12 0.37 7
4 08/17/2022 21:58:49 -79.05, -76.53 99.62 08/17/2022 21:59:59 -79.06, -76.39 99.70 3.05 70
5 08/20/2022 12:36:01 -78.44, 60.80 97.97 08/20/2022 12:35:42 -78.43, 60.72 97.94 1.97 19
6 08/20/2022 13:25:15 78.89,-129.07 81.43 08/20/2022 13:26:14 78.89,-129.11 81.39 0.87 59
7 08/23/2022 04:02:22 78.50, 9.55 82.78 08/23/2022 04:01:51 78.51, 9.64 82.79 2.15 31
8 08/23/2022 04:51:41 -78.84, 179.05 97.67 08/23/2022 04:52:28 -78.84, 179.01 97.70 0.96 47
9 08/25/2022 19:28:52 -78.27, -43.22 96.06 08/25/2022 19:28:10 -78.26, -43.33 96.01 2.47 42



Historial Predications of SNOs between AQUA and NPP
